#timestamp,LO_Frequency,Hit,StdDev 
1584417615.3,286046987.9,P
1584417635.1,286046992.7,N
1584417636.0,286046992.7,N
1584417655.8,286046992.3,N
1584417675.7,286046987.6,N
1584417695.5,286046989.9,N
1584417715.3,286046981.9,Y
1584417735.2,286046983.7,P
1584417755.0,286046985.0,P
1584417755.9,286046985.0,P
1584417775.8,286046980.8,Y
1584417795.6,286047002.7,P
1584417815.4,286046997.6,N
1584417835.3,286046994.4,N
1584417855.1,286046991.9,N
1584417875.8,286046998.8,N
1584417895.7,286047000.1,N
1584417915.5,286047005.7,N
1584417935.4,286047008.3,N
1584417955.2,286047005.0,N
1584417975.0,286047012.4,N
1584417975.9,286047012.4,N
1584417995.8,286047008.8,N
1584418015.6,286047007.7,N
1584418035.4,286047012.2,N
1584418055.3,286047015.2,N
1584418075.1,286047012.1,N
1584418095.9,286047013.2,N
1584418115.7,286047014.7,N
1584418135.5,286047013.5,N
1584418155.4,286047011.4,N
1584418175.2,286047013.8,N
1584418195.0,286047015.2,N
1584418196.0,286047015.2,N
1584418215.8,286047018.4,N
1584418235.6,286047018.6,N
1584418255.5,286047017.7,N
1584418275.3,286047023.4,N
1584418295.1,286047024.1,N
1584418315.9,286047027.4,Y
1584418335.7,286047017.1,P
1584418355.6,286047016.4,P
1584418375.4,286047014.2,P
1584418395.2,286047014.4,Y
1584418415.1,286046997.2,P
1584418416.0,286046997.2,N
1584418435.8,286046993.8,N
1584418455.6,286046999.1,N
1584418475.5,286046998.3,N
1584418495.3,286046998.6,N
1584418515.2,286046998.5,N
1584418535.9,286047000.8,N
1584418555.7,286047001.0,N
1584418575.6,286047004.0,N
1584418595.4,286046998.8,N
1584418615.2,286046999.5,N
1584418635.1,286046995.4,N
1584418636.0,286046995.4,N
1584418655.8,286046995.1,N
1584418675.7,286046993.8,N
1584418695.5,286046987.7,N
1584418715.3,286046989.0,N
1584418735.2,286046991.9,N
1584418755.0,286046992.6,N
1584418755.9,286046992.6,N
1584418775.7,286046990.1,N
1584418795.6,286046990.7,N
1584418815.4,286046992.1,N
1584418835.3,286046994.7,N
1584418855.1,286046986.1,N
1584418856.0,286046986.1,N
1584418875.8,286046984.8,N
1584418895.7,286046978.2,Y
1584418915.5,286046985.1,P
1584418935.4,286046989.3,N
1584418955.2,286046993.9,N
1584418975.0,286046990.4,N
1584418975.9,286046990.4,N
1584418995.8,286046993.0,N
1584419015.6,286046995.3,N
1584419035.4,286047004.2,N
1584419055.3,286047006.7,N
1584419075.1,286047004.8,N
1584419095.9,286047007.2,N
1584419115.7,286047010.2,N
1584419135.5,286047010.3,N
1584419155.4,286047006.5,N
1584419175.2,286047003.1,N
1584419195.0,286047002.6,N
1584419195.9,286047002.6,N
1584419215.8,286047000.1,N
1584419235.6,286046997.4,N
1584419255.5,286046994.6,N
1584419275.3,286046995.6,N
1584419295.1,286046994.4,N
1584419315.9,286046994.2,N
1584419335.7,286046999.3,N
1584419355.5,286047005.6,N
1584419375.4,286047004.8,N
1584419395.2,286047009.5,N
1584419415.1,286047004.6,N
1584419416.0,286047004.6,N
1584419435.8,286047004.3,N
1584419455.6,286046995.1,N
1584419475.5,286046991.5,N
1584419495.3,286046989.3,N
1584419515.2,286046984.0,N
1584419535.9,286046987.3,N
1584419555.7,286046990.1,N
1584419575.6,286046994.7,N
1584419595.4,286046994.6,N
1584419615.2,286046989.4,N
1584419635.1,286046987.0,N
1584419636.0,286046987.0,N
1584419655.8,286046982.3,N
1584419675.7,286046991.1,N
1584419695.5,286046987.4,N
1584419715.3,286046994.4,N
1584419735.2,286046996.7,N
1584419755.0,286046998.7,N
1584419755.9,286046998.7,N
1584419775.7,286047002.6,N
1584419795.6,286046994.2,N
1584419815.4,286046998.5,N
1584419835.3,286047007.4,N
1584419855.1,286047005.2,N
1584419856.0,286047005.2,N
1584419875.8,286047006.0,N
1584419895.7,286047004.7,N
1584419915.5,286047007.2,N
1584419935.4,286047010.0,N
1584419955.2,286047006.7,N
1584419975.0,286047007.5,N
1584419976.0,286047007.5,N
1584419995.8,286047005.3,N
1584420015.7,286047008.9,N
1584420035.5,286047013.6,N
1584420055.3,286047013.0,N
1584420075.2,286047014.5,N
1584420095.0,286047009.1,N
1584420095.9,286047009.1,N
1584420115.8,286047011.6,N
1584420135.6,286047011.4,N
1584420155.4,286047009.2,N
1584420175.3,286047006.2,N
1584420195.1,286047009.1,N
1584420215.9,286047012.5,N
1584420235.7,286047012.7,N
1584420255.5,286047010.8,N
1584420275.4,286047012.5,N
1584420295.2,286047019.0,Y
1584420315.0,286047011.0,P
1584420316.0,286047011.0,P
1584420335.8,286047004.7,N
1584420355.6,286047003.3,N
1584420375.5,286046997.0,N
1584420395.3,286046997.1,N
1584420415.1,286046993.0,N
1584420435.9,286046997.5,N
1584420455.7,286047002.3,N
1584420475.6,286046995.9,N
1584420495.4,286046994.1,N
1584420515.2,286046999.4,N
1584420535.1,286046997.5,N
1584420536.0,286046997.5,N
1584420555.8,286046995.0,N
1584420575.7,286047000.9,N
1584420595.5,286047002.7,N
1584420615.3,286047004.7,N
1584420635.2,286047005.5,N
1584420655.9,286047003.6,N
1584420675.7,286047001.9,N
1584420695.6,286046998.7,N
1584420715.4,286047002.2,N
1584420735.2,286047003.8,N
1584420755.1,286047003.7,N
1584420756.0,286047003.7,N
1584420775.8,286047000.5,N
1584420795.7,286046995.9,N
1584420815.5,286046990.7,N
1584420835.3,286046992.0,N
1584420855.2,286046990.5,N
1584420875.0,286046998.5,N
1584420875.9,286046998.5,N
1584420895.8,286047001.5,N
1584420915.6,286047006.0,N
1584420935.4,286047008.6,N
1584420955.3,286047018.2,Y
1584420975.1,286047016.0,P
1584420995.9,286047016.6,N
1584421015.7,286047018.7,N
1584421035.5,286047015.8,N
1584421055.4,286047014.8,N
1584421075.2,286047009.6,N
1584421095.1,286047012.4,N
1584421096.0,286047012.4,N
1584421115.8,286047007.5,N
1584421135.7,286047006.5,N
1584421155.5,286047010.9,N
1584421175.3,286047013.9,N
1584421195.2,286047011.9,N
